Location: Newark
(10.9667°N, 4.8167°W)
Time: 13:49:26
(UTC+00:00)

Hubble Space Telescope - Pass Details

Date: 11 December 2019
Orbit: 536 x 540 km, 28.5° (Epoch: 20 January)

Event Time Altitude Azimuth Distance (km) Brightness Sun altitude
Exits shadow 04:05:41 18° 105° (ESE) 1,333 3.4 -33.3°
Drops below altitude 10° 04:07:10 10° 90° (E) 1,783 4.2 -32.9°
Sets 04:09:39 0° 78° (ENE) 2,673 5.1 -32.3°
